User: anonymous   Login
Location: Unspecified
(0.0000°N, 0.0000°E)
Time: 09:22:10
(UTC+00:00)
Language:

NOAA 9 - Orbit

View from above orbital plane
View from above orbital plane
View from above satellite
View from above satellite

Ground track
Ground track

The orbit data is extracted from the following two-line orbital elements,

1 15427U 84123A   19287.86377122 -.00000008 +00000-0 +18815-4 0  9996
2 15427 098.9047 236.6762 0015814 060.3766 357.4343 14.16078606798391
Epoch (UTC): 14 October 2019 20:43:49
Eccentricity: 0.0015814
inclination: 98.9047°
perigee height: 827 km
apogee height: 850 km
right ascension of ascending node: 236.6762°
argument of perigee: 60.3766°
revolutions per day: 14.16078606
mean anomaly at epoch: 357.4343°
orbit number at epoch: 79839

The dashed part of the orbit path shows where the satellite is in the earth's shadow,  

DLR